Time,TemperatureF,DewpointF,PressureIn,WindDirection,WindDirectionDegrees,WindSpeedMPH,WindSpeedGustMPH,Humidity,HourlyPrecipIn,Conditions,Clouds,dailyrainin,SoftwareType,DateUTC
2013-01-18 00:10:00,15.2,13.0,30.18,NNE,21,0.0,-999.0,90,-99.99,,,0.00,weatherlink.com 1.10,2013-01-18 05:10:00,
2013-01-18 00:25:00,15.2,13.0,30.18,NNE,26,2.0,-999.0,90,-99.99,,,0.00,weatherlink.com 1.10,2013-01-18 05:25:00,
2013-01-18 00:40:00,15.0,13.0,30.19,NNE,23,1.0,-999.0,90,-99.99,,,0.00,weatherlink.com 1.10,2013-01-18 05:40:00,
2013-01-18 00:55:00,14.9,13.0,30.21,North,360,1.0,-999.0,90,-99.99,,,0.00,weatherlink.com 1.10,2013-01-18 05:55:00,
2013-01-18 01:10:00,15.0,13.0,30.22,North,360,1.0,-999.0,90,-99.99,,,0.00,weatherlink.com 1.10,2013-01-18 06:10:00,
2013-01-18 01:25:00,15.0,13.0,30.22,NNW,340,1.0,-999.0,90,-99.99,,,0.00,weatherlink.com 1.10,2013-01-18 06:25:00,
2013-01-18 01:40:00,15.2,13.0,30.22,NNW,341,0.0,-999.0,90,-99.99,,,0.00,weatherlink.com 1.10,2013-01-18 06:40:00,
2013-01-18 01:55:00,15.2,13.0,30.24,NNW,341,0.0,-999.0,90,-99.99,,,0.00,weatherlink.com 1.10,2013-01-18 06:55:00,
2013-01-18 02:10:00,15.4,13.0,30.25,North,360,0.0,-999.0,90,-99.99,,,0.01,weatherlink.com 1.10,2013-01-18 07:10:00,
2013-01-18 02:25:00,15.4,13.0,30.25,North,360,0.0,-999.0,90,-99.99,,,0.01,weatherlink.com 1.10,2013-01-18 07:25:00,
2013-01-18 02:40:00,15.3,13.0,30.27,North,360,0.0,-999.0,90,-99.99,,,0.01,weatherlink.com 1.10,2013-01-18 07:40:00,
2013-01-18 02:55:00,15.3,13.0,30.27,North,360,0.0,-999.0,90,-99.99,,,0.01,weatherlink.com 1.10,2013-01-18 07:55:00,
2013-01-18 03:10:00,15.3,13.0,30.28,North,360,0.0,-999.0,90,-99.99,,,0.01,weatherlink.com 1.10,2013-01-18 08:10:00,
2013-01-18 03:25:00,15.2,13.0,30.28,North,360,0.0,-999.0,90,-99.99,,,0.01,weatherlink.com 1.10,2013-01-18 08:25:00,
2013-01-18 03:40:00,15.0,13.0,30.29,North,360,0.0,-999.0,90,-99.99,,,0.01,weatherlink.com 1.10,2013-01-18 08:40:00,
2013-01-18 03:55:00,14.8,12.0,30.29,North,355,0.0,-999.0,90,-99.99,,,0.01,weatherlink.com 1.10,2013-01-18 08:55:00,
2013-01-18 04:10:00,14.8,12.0,30.29,WNW,296,0.0,-999.0,90,-99.99,,,0.01,weatherlink.com 1.10,2013-01-18 09:10:00,
2013-01-18 04:25:00,14.7,12.0,30.30,West,275,0.0,-999.0,90,-99.99,,,0.01,weatherlink.com 1.10,2013-01-18 09:25:00,
2013-01-18 04:40:00,14.7,12.0,30.31,West,265,0.0,-999.0,90,-99.99,,,0.01,weatherlink.com 1.10,2013-01-18 09:40:00,
2013-01-18 04:55:00,14.7,12.0,30.32,WSW,245,0.0,-999.0,90,-99.99,,,0.01,weatherlink.com 1.10,2013-01-18 09:55:00,
2013-01-18 05:10:00,14.4,12.0,30.32,WSW,245,0.0,-999.0,90,-99.99,,,0.01,weatherlink.com 1.10,2013-01-18 10:10:00,
2013-01-18 05:25:00,14.1,12.0,30.34,WSW,245,0.0,-999.0,90,-99.99,,,0.01,weatherlink.com 1.10,2013-01-18 10:25:00,
2013-01-18 05:40:00,14.1,12.0,30.34,WSW,254,0.0,-999.0,90,-99.99,,,0.01,weatherlink.com 1.10,2013-01-18 10:40:00,
2013-01-18 05:55:00,13.9,12.0,30.35,West,259,0.0,-999.0,90,-99.99,,,0.01,weatherlink.com 1.10,2013-01-18 10:55:00,
2013-01-18 06:10:00,13.9,12.0,30.36,West,259,1.0,-999.0,90,-99.99,,,0.01,weatherlink.com 1.10,2013-01-18 11:10:00,
2013-01-18 06:25:00,14.0,12.0,30.37,WSW,238,0.0,-999.0,90,-99.99,,,0.01,weatherlink.com 1.10,2013-01-18 11:25:00,
2013-01-18 06:40:00,13.9,12.0,30.37,West,265,0.0,-999.0,90,-99.99,,,0.01,weatherlink.com 1.10,2013-01-18 11:40:00,
2013-01-18 06:55:00,13.5,11.0,30.38,WSW,250,1.0,-999.0,89,-99.99,,,0.01,weatherlink.com 1.10,2013-01-18 11:55:00,
2013-01-18 07:10:00,13.1,11.0,30.38,WSW,238,1.0,-999.0,89,-99.99,,,0.01,weatherlink.com 1.10,2013-01-18 12:10:00,
2013-01-18 07:25:00,13.0,10.0,30.39,WSW,252,2.0,-999.0,89,-99.99,,,0.01,weatherlink.com 1.10,2013-01-18 12:25:00,
2013-01-18 07:40:00,12.8,10.0,30.39,West,264,0.0,-999.0,89,-99.99,,,0.01,weatherlink.com 1.10,2013-01-18 12:40:00,
2013-01-18 07:55:00,12.8,10.0,30.40,West,264,1.0,-999.0,89,-99.99,,,0.01,weatherlink.com 1.10,2013-01-18 12:55:00,
2013-01-18 08:10:00,12.9,10.0,30.41,WSW,247,2.0,-999.0,89,-99.99,,,0.01,weatherlink.com 1.10,2013-01-18 13:10:00,
2013-01-18 08:25:00,13.1,11.0,30.41,SW,234,1.0,-999.0,89,-99.99,,,0.01,weatherlink.com 1.10,2013-01-18 13:25:00,
2013-01-18 08:40:00,13.3,11.0,30.42,SW,226,1.0,-999.0,89,-99.99,,,0.01,weatherlink.com 1.10,2013-01-18 13:40:00,
2013-01-18 08:55:00,13.7,11.0,30.43,SW,222,1.0,-999.0,88,-99.99,,,0.01,weatherlink.com 1.10,2013-01-18 13:55:00,
2013-01-18 09:10:00,14.3,11.0,30.43,WSW,251,4.0,-999.0,87,-99.99,,,0.01,weatherlink.com 1.10,2013-01-18 14:10:00,
2013-01-18 09:25:00,14.8,11.0,30.44,SW,220,3.0,-999.0,85,-99.99,,,0.01,weatherlink.com 1.10,2013-01-18 14:25:00,
2013-01-18 09:40:00,15.5,11.0,30.44,West,263,0.0,-999.0,83,-99.99,,,0.01,weatherlink.com 1.10,2013-01-18 14:40:00,
2013-01-18 09:55:00,16.1,11.0,30.45,SW,225,2.0,-999.0,81,-99.99,,,0.01,weatherlink.com 1.10,2013-01-18 14:55:00,
2013-01-18 10:10:00,16.7,11.0,30.46,SW,227,6.0,-999.0,78,-99.99,,,0.01,weatherlink.com 1.10,2013-01-18 15:10:00,
2013-01-18 10:25:00,17.2,11.0,30.45,WSW,238,12.0,-999.0,78,-99.99,,,0.01,weatherlink.com 1.10,2013-01-18 15:25:00,
2013-01-18 10:40:00,18.1,12.0,30.46,WSW,242,2.0,-999.0,76,-99.99,,,0.01,weatherlink.com 1.10,2013-01-18 15:40:00,
2013-01-18 10:55:00,18.4,12.0,30.46,West,267,3.0,-999.0,75,-99.99,,,0.01,weatherlink.com 1.10,2013-01-18 15:55:00,
2013-01-18 11:10:00,19.6,12.0,30.44,NW,304,1.0,-999.0,72,-99.99,,,0.01,weatherlink.com 1.10,2013-01-18 16:10:00,
2013-01-18 11:25:00,20.0,11.0,30.43,WSW,237,1.0,-999.0,69,-99.99,,,0.01,weatherlink.com 1.10,2013-01-18 16:25:00,
2013-01-18 11:40:00,20.3,11.0,30.44,West,261,1.0,-999.0,67,-99.99,,,0.01,weatherlink.com 1.10,2013-01-18 16:40:00,
2013-01-18 11:55:00,20.6,11.0,30.43,SW,233,3.0,-999.0,66,-99.99,,,0.01,weatherlink.com 1.10,2013-01-18 16:55:00,
2013-01-18 12:10:00,20.3,10.0,30.42,WSW,244,5.0,-999.0,65,-99.99,,,0.01,weatherlink.com 1.10,2013-01-18 17:10:00,
2013-01-18 12:25:00,20.8,11.0,30.42,West,273,1.0,-999.0,65,-99.99,,,0.01,weatherlink.com 1.10,2013-01-18 17:25:00,
2013-01-18 12:40:00,20.9,10.0,30.42,WSW,240,5.0,-999.0,64,-99.99,,,0.01,weatherlink.com 1.10,2013-01-18 17:40:00,
2013-01-18 12:55:00,21.9,12.0,30.41,West,264,1.0,-999.0,65,-99.99,,,0.01,weatherlink.com 1.10,2013-01-18 17:55:00,
2013-01-18 13:10:00,22.3,12.0,30.41,WSW,238,3.0,-999.0,64,-99.99,,,0.01,weatherlink.com 1.10,2013-01-18 18:10:00,
2013-01-18 13:25:00,22.3,11.0,30.39,SW,236,2.0,-999.0,63,-99.99,,,0.01,weatherlink.com 1.10,2013-01-18 18:25:00,
2013-01-18 13:40:00,22.6,12.0,30.39,WSW,253,2.0,-999.0,63,-99.99,,,0.01,weatherlink.com 1.10,2013-01-18 18:40:00,
2013-01-18 13:55:00,23.3,12.0,30.39,SW,223,4.0,-999.0,63,-99.99,,,0.01,weatherlink.com 1.10,2013-01-18 18:55:00,
2013-01-18 14:10:00,24.0,13.0,30.38,WSW,238,5.0,-999.0,62,-99.99,,,0.01,weatherlink.com 1.10,2013-01-18 19:10:00,
2013-01-18 14:25:00,24.2,12.0,30.38,SW,229,4.0,-999.0,60,-99.99,,,0.01,weatherlink.com 1.10,2013-01-18 19:25:00,
2013-01-18 14:40:00,24.3,12.0,30.38,SW,217,5.0,-999.0,61,-99.99,,,0.01,weatherlink.com 1.10,2013-01-18 19:40:00,
2013-01-18 14:55:00,24.0,12.0,30.37,SSW,205,3.0,-999.0,60,-99.99,,,0.01,weatherlink.com 1.10,2013-01-18 19:55:00,
2013-01-18 15:10:00,23.9,12.0,30.36,West,261,5.0,-999.0,60,-99.99,,,0.01,weatherlink.com 1.10,2013-01-18 20:10:00,
2013-01-18 15:25:00,24.0,13.0,30.35,SSW,207,2.0,-999.0,62,-99.99,,,0.01,weatherlink.com 1.10,2013-01-18 20:25:00,
2013-01-18 15:40:00,24.3,13.0,30.34,West,264,4.0,-999.0,63,-99.99,,,0.01,weatherlink.com 1.10,2013-01-18 20:40:00,
2013-01-18 15:55:00,23.9,14.0,30.34,SSW,195,3.0,-999.0,65,-99.99,,,0.01,weatherlink.com 1.10,2013-01-18 20:55:00,
2013-01-18 16:10:00,23.5,13.0,30.33,SSW,211,2.0,-999.0,65,-99.99,,,0.01,weatherlink.com 1.10,2013-01-18 21:10:00,
2013-01-18 16:25:00,23.6,14.0,30.33,SSW,192,0.0,-999.0,66,-99.99,,,0.01,weatherlink.com 1.10,2013-01-18 21:25:00,
2013-01-18 16:40:00,23.5,13.0,30.32,SSW,213,4.0,-999.0,65,-99.99,,,0.01,weatherlink.com 1.10,2013-01-18 21:40:00,
2013-01-18 16:55:00,23.5,13.0,30.30,SSE,167,3.0,-999.0,65,-99.99,,,0.01,weatherlink.com 1.10,2013-01-18 21:55:00,
2013-01-18 17:10:00,23.4,13.0,30.30,South,172,3.0,-999.0,64,-99.99,,,0.01,weatherlink.com 1.10,2013-01-18 22:10:00,
2013-01-18 17:25:00,23.5,13.0,30.30,SSE,160,3.0,-999.0,65,-99.99,,,0.01,weatherlink.com 1.10,2013-01-18 22:25:00,
2013-01-18 17:40:00,23.4,13.0,30.29,SSW,194,1.0,-999.0,64,-99.99,,,0.01,weatherlink.com 1.10,2013-01-18 22:40:00,
2013-01-18 17:55:00,23.4,13.0,30.29,South,188,3.0,-999.0,64,-99.99,,,0.01,weatherlink.com 1.10,2013-01-18 22:55:00,
2013-01-18 18:10:00,23.5,13.0,30.29,South,178,0.0,-999.0,65,-99.99,,,0.01,weatherlink.com 1.10,2013-01-18 23:10:00,
2013-01-18 18:25:00,23.2,14.0,30.28,South,178,0.0,-999.0,67,-99.99,,,0.01,weatherlink.com 1.10,2013-01-18 23:25:00,
2013-01-18 18:40:00,22.9,13.0,30.27,South,184,0.0,-999.0,66,-99.99,,,0.01,weatherlink.com 1.10,2013-01-18 23:40:00,
2013-01-18 18:55:00,22.8,13.0,30.26,South,184,1.0,-999.0,67,-99.99,,,0.01,weatherlink.com 1.10,2013-01-18 23:55:00,
2013-01-18 19:10:00,22.9,13.0,30.25,SSE,151,2.0,-999.0,66,-99.99,,,0.01,weatherlink.com 1.10,2013-01-19 00:10:00,
2013-01-18 19:25:00,23.3,13.0,30.25,SSE,150,2.0,-999.0,66,-99.99,,,0.01,weatherlink.com 1.10,2013-01-19 00:25:00,
2013-01-18 19:40:00,23.4,13.0,30.24,SE,128,0.0,-999.0,65,-99.99,,,0.01,weatherlink.com 1.10,2013-01-19 00:40:00,
2013-01-18 19:55:00,23.0,13.0,30.23,SSE,147,1.0,-999.0,66,-99.99,,,0.01,weatherlink.com 1.10,2013-01-19 00:55:00,
2013-01-18 20:10:00,22.9,13.0,30.21,SSE,153,0.0,-999.0,67,-99.99,,,0.01,weatherlink.com 1.10,2013-01-19 01:10:00,
2013-01-18 20:25:00,23.3,13.0,30.19,SSE,157,3.0,-999.0,65,-99.99,,,0.01,weatherlink.com 1.10,2013-01-19 01:25:00,
2013-01-18 20:40:00,23.8,14.0,30.17,SSE,161,3.0,-999.0,65,-99.99,,,0.01,weatherlink.com 1.10,2013-01-19 01:40:00,
2013-01-18 20:55:00,24.8,14.0,30.16,SSE,162,4.0,-999.0,64,-99.99,,,0.01,weatherlink.com 1.10,2013-01-19 01:55:00,
2013-01-18 21:10:00,25.5,14.0,30.14,South,170,6.0,-999.0,63,-99.99,,,0.01,weatherlink.com 1.10,2013-01-19 02:10:00,
2013-01-18 21:25:00,26.6,15.0,30.13,SSW,207,9.0,-999.0,61,-99.99,,,0.01,weatherlink.com 1.10,2013-01-19 02:25:00,
2013-01-18 21:40:00,27.2,15.0,30.12,South,191,9.0,-999.0,61,-99.99,,,0.01,weatherlink.com 1.10,2013-01-19 02:40:00,
2013-01-18 21:55:00,27.8,16.0,30.11,SSW,198,4.0,-999.0,61,-99.99,,,0.01,weatherlink.com 1.10,2013-01-19 02:55:00,
2013-01-18 22:10:00,28.7,16.0,30.10,South,169,5.0,-999.0,60,-99.99,,,0.01,weatherlink.com 1.10,2013-01-19 03:10:00,
2013-01-18 22:25:00,29.4,17.0,30.09,South,186,8.0,-999.0,60,-99.99,,,0.01,weatherlink.com 1.10,2013-01-19 03:25:00,
2013-01-18 22:40:00,30.1,18.0,30.07,SSW,198,11.0,-999.0,60,-99.99,,,0.01,weatherlink.com 1.10,2013-01-19 03:40:00,
2013-01-18 22:55:00,30.4,17.0,30.07,SSW,207,6.0,-999.0,59,-99.99,,,0.01,weatherlink.com 1.10,2013-01-19 03:55:00,
2013-01-18 23:10:00,30.6,18.0,30.07,SSW,194,2.0,-999.0,60,-99.99,,,0.01,weatherlink.com 1.10,2013-01-19 04:10:00,
2013-01-18 23:25:00,30.7,18.0,30.07,South,172,4.0,-999.0,60,-99.99,,,0.01,weatherlink.com 1.10,2013-01-19 04:25:00,
2013-01-18 23:40:00,31.3,19.0,30.06,SE,132,3.0,-999.0,61,-99.99,,,0.01,weatherlink.com 1.10,2013-01-19 04:40:00,
2013-01-18 23:55:00,33.4,19.0,30.05,WSW,241,5.0,-999.0,57,-99.99,,,0.01,weatherlink.com 1.10,2013-01-19 04:55:00,